Location: Brabourne
(51.1333°N, 1.0000°E)
Time: 12:25:39
(UTC+00:00)

IRS-1D - Pass Details

Date: 22 October 2021
Orbit: 739 x 817 km, 98.6° (Epoch: 30 November)

Event Time Altitude Azimuth Distance (km) Brightness Sun altitude
Rises 01:38:46 0° 22° (NNE) 3,278 7.5 -43.3°
Reaches altitude 10° 01:41:24 10° 34° (NNE) 2,332 6.6 -43.0°
Enters shadow 01:42:14 14° 39° (NE) 2,063 6.3 -42.9°
